Theta_e
289 288 287 285 286 285 285 285 283 282 281 280 280 280 280 279 279 278 279 277 278 278
288 287 286 284 285 285 285 284 282 282 281 280 280 279 279 278 278 277 278 277 278 277
287 287 286 283 284 284 284 283 281 281 281 280 279 279 278 277 277 277 277 277 277 277
286 286 285 283 284 284 283 282 281 281 280 280 278 278 277 277 276 276 276 276 276 276
286 285 284 284 283 283 282 282 281 281 280 280 279 277 277 276 276 275 275 275 275 274
285 284 284 284 283 282 282 281 281 280 279 279 278 277 276 276 275 274 274 274 274 273
284 284 284 285 283 281 281 280 279 279 279 278 277 276 276 275 274 273 273 273 273 273
285 285 284 283 282 281 281 280 279 278 277 277 276 276 275 274 273 273 272 272 273 273
283 282 282 282 281 280 279 279 278 277 276 275 276 280 280 276 273 273 272 271 272 273
283 282 281 282 280 279 278 278 277 277 276 275 276 281 282 279 274 273 272 272 273 273
280 282 280 279 278 278 278 277 276 276 276 275 275 282 282 279 274 274 274 274 274 273
279 280 278 278 277 277 277 276 276 276 275 275 275 282 283 280 274 274 274 274 274 274
278 279 277 278 276 277 277 276 276 275 275 275 274 282 283 280 274 273 273 274 274 275
274 274 274 275 275 276 276 275 274 273 273 274 274 279 283 283 275 273 272 272 272 274
Wind_Speed
14 10 10 12 10 11 12 12 13 13 11 11 11 9 8 5 5 6 5 6 4 3
14 14 13 10 9 9 9 10 14 15 14 12 11 11 10 7 8 7 6 6 6 4
14 15 13 11 14 13 11 12 14 15 15 14 12 12 11 7 7 8 6 5 6 4
14 14 13 13 14 15 13 14 15 16 15 15 15 13 12 10 10 10 8 5 7 7
13 13 15 15 15 15 16 15 16 16 16 16 16 15 15 13 12 12 12 10 9 9
13 13 17 18 15 15 15 16 15 16 18 18 17 16 15 14 13 12 11 11 11 9
16 18 18 14 15 16 17 17 18 17 17 17 17 16 16 15 13 12 11 10 9 9
16 15 14 14 15 14 16 16 16 16 14 15 16 14 18 16 14 13 11 9 10 9
10 10 13 13 14 15 15 15 16 17 18 18 13 26 29 20 14 13 13 11 9 8
10 13 14 13 14 15 16 14 16 16 17 17 16 30 30 28 14 14 12 12 11 9
6 10 9 11 14 15 14 17 16 16 16 15 14 30 30 28 13 12 13 14 14 12
5 6 6 11 11 11 11 12 15 15 17 17 15 31 31 26 14 14 13 12 12 11
5 6 8 8 9 8 9 10 9 10 13 17 17 30 32 25 12 13 11 11 11 16
4 4 4 5 5 8 8 9 10 12 10 11 14 22 34 32 13 12 11 11 10 8
Wind_Direction
196 193 193 186 185 186 187 188 177 184 184 173 170 173 169 168 165 165 171 177 169 158
195 192 190 180 184 189 182 176 171 181 180 178 176 171 170 174 175 164 165 175 173 166
204 195 189 170 187 185 181 170 171 180 182 177 177 171 172 170 167 171 173 168 173 174
202 203 191 186 189 188 174 177 175 181 180 180 177 174 176 177 168 171 168 168 177 180
201 194 197 201 195 186 182 182 180 176 181 182 182 177 179 177 176 175 178 178 177 184
210 200 208 207 196 185 181 181 183 179 184 183 182 178 180 179 176 178 179 178 182 184
208 207 210 206 196 186 185 183 184 186 186 182 179 177 176 175 173 178 179 174 176 178
223 211 204 199 198 190 190 189 183 176 183 180 180 178 176 174 174 172 169 169 173 187
207 207 201 197 191 190 189 186 181 184 180 180 186 186 181 168 169 172 170 173 178 184
213 204 201 192 184 186 190 177 189 186 181 185 185 183 182 174 167 172 176 169 168 178
224 222 204 190 192 186 187 186 184 186 185 182 182 183 181 176 167 167 172 172 166 179
215 224 196 203 196 191 190 190 186 184 179 179 178 183 182 174 167 167 171 171 169 174
212 208 203 206 194 189 192 186 183 183 181 173 164 183 188 176 168 167 162 166 177 183
216 204 185 172 173 177 179 176 174 170 172 182 175 182 187 183 175 169 167 169 173 180